Change the Weather History Date:

Saturday, July 20, 2013

  Actual Average Record
Temperature  
Mean Temperature 84 °F -  
Max Temperature 93 °F 77 °F 99 °F (1980)
Min Temperature 75 °F 58 °F 52 °F (2001)
Cooling Degree Days 20    
Growing Degree Days 34 (Base 50)    
Moisture  
Dew Point 72 °F    
Average Humidity 69    
Maximum Humidity 82    
Minimum Humidity 52    
Precipitation  
Precipitation 0.05 in - - ()
Sea Level Pressure  
Sea Level Pressure 29.68 in    
Wind  
Wind Speed 7 mph (WSW)    
Max Wind Speed 14 mph    
Max Gust Speed 34 mph    
Visibility 8 miles    
Events Rain , Thunderstorm    
Averages and records for this station are not official NWS values.
T = Trace of Precipitation, MM = Missing Value Source: NWS Daily Summary

Daily Weather History Graph

Daily Weather History Graph

Search for Another Location

Airport or City:

Trip Planner

Search our weather history database for the weather conditions in past years. The results will help you decide how hot, cold, wet, or windy it might be!

Date:

Astronomy

Jul. 20, 2013 Rise Set
Actual Time 5:24 AM EDT 8:15 PM EDT
Civil Twilight 4:50 AM EDT 8:48 PM EDT
Nautical Twilight 4:08 AM EDT 9:30 PM EDT
Astronomical Twilight 3:19 AM EDT 10:19 PM EDT
Moon 6:15 PM EDT (7/20) 3:00 AM EDT (7/20)
Length of Visible Light 15h 57m
Length of Day
14h 51m
Waxing Gibbous, 93% of the Moon is Illuminated
Jul 20
Waxing Gibbous
Jul 22
Full
Jul 29
Last Quarter
Aug 6
New
Aug 14
First Quarter

Hourly Weather History & Observations

Time (EDT) Temp. Heat Index Dew Point Humidity Pressure Visibility Wind Dir Wind Speed Gust Speed Precip Events Conditions
12:53 AM 82.9 °F 89.4 °F 73.9 °F 74% 29.71 in 9.0 mi SW 6.9 mph - N/A   Clear
1:53 AM 82.0 °F 87.9 °F 73.9 °F 76% 29.71 in 8.0 mi West 5.8 mph - N/A   Clear
2:53 AM 81.0 °F 86.2 °F 73.9 °F 79% 29.70 in 8.0 mi WSW 5.8 mph - N/A   Clear
3:53 AM 80.1 °F 84.5 °F 73.9 °F 81% 29.68 in 8.0 mi SW 8.1 mph - N/A   Clear
4:53 AM 79.0 °F - 72.0 °F 79% 29.68 in 9.0 mi SW 5.8 mph - N/A   Clear
5:53 AM 79.0 °F - 73.0 °F 82% 29.69 in 7.0 mi WSW 3.5 mph - N/A   Clear
6:53 AM 81.0 °F 86.2 °F 73.9 °F 79% 29.70 in 6.0 mi SW 5.8 mph - N/A   Haze
7:53 AM 82.9 °F 90.2 °F 75.0 °F 77% 29.71 in 6.0 mi SW 8.1 mph - N/A   Haze
8:53 AM 86.0 °F 96.0 °F 75.9 °F 72% 29.69 in 7.0 mi WSW 6.9 mph - N/A   Mostly Cloudy
9:53 AM 87.1 °F 95.4 °F 73.9 °F 65% 29.69 in 9.0 mi West 6.9 mph - N/A   Mostly Cloudy
10:53 AM 88.0 °F 97.5 °F 75.0 °F 65% 29.68 in 9.0 mi West 9.2 mph - N/A   Mostly Cloudy
11:53 AM 90.0 °F 99.0 °F 73.9 °F 59% 29.66 in 10.0 mi WSW 11.5 mph - N/A   Mostly Cloudy
12:53 PM 91.0 °F 100.4 °F 73.9 °F 57% 29.64 in 10.0 mi West 8.1 mph - N/A   Mostly Cloudy
1:53 PM 91.9 °F 101.3 °F 73.9 °F 55% 29.63 in 10.0 mi WSW 11.5 mph - N/A   Mostly Cloudy
2:53 PM 91.9 °F 99.5 °F 72.0 °F 52% 29.62 in 10.0 mi West 11.5 mph - N/A   Clear
3:40 PM 87.8 °F 92.6 °F 69.8 °F 55% 29.64 in 10.0 mi West 13.8 mph - N/A Rain , Thunderstorm Light Thunderstorms and Rain
3:51 PM 78.8 °F - 71.6 °F 78% 29.65 in 2.0 mi SW 9.2 mph 34.5 mph N/A Rain Light Rain
3:53 PM 79.0 °F - 72.0 °F 79% 29.63 in 2.0 mi WSW 9.2 mph - N/A Rain Light Rain
3:55 PM 78.8 °F - 71.6 °F 78% 29.65 in 8.0 mi WSW 8.1 mph - N/A Rain , Thunderstorm Light Thunderstorms and Rain
4:12 PM 80.6 °F 85.4 °F 73.4 °F 79% 29.66 in 9.0 mi WSW 6.9 mph - 0.00 in   Partly Cloudy
4:53 PM 82.9 °F 90.2 °F 75.0 °F 77% 29.65 in 10.0 mi SSW 5.8 mph - 0.00 in   Clear
5:53 PM 86.0 °F 95.1 °F 75.0 °F 70% 29.66 in 10.0 mi WSW 5.8 mph - N/A   Clear
6:53 PM 84.0 °F 88.4 °F 70.0 °F 63% 29.66 in 10.0 mi West 6.9 mph - N/A   Clear
7:53 PM 82.9 °F 86.5 °F 69.1 °F 63% 29.68 in 10.0 mi West 6.9 mph - N/A   Clear
8:53 PM 82.0 °F 84.5 °F 66.9 °F 60% 29.71 in 10.0 mi WNW 8.1 mph - N/A   Mostly Cloudy
9:53 PM 80.1 °F 81.5 °F 63.0 °F 56% 29.73 in 10.0 mi WNW 8.1 mph - N/A   Partly Cloudy
10:53 PM 78.1 °F - 61.0 °F 56% 29.76 in 10.0 mi West 5.8 mph - N/A   Clear
11:53 PM 75.9 °F - 62.1 °F 62% 29.77 in 10.0 mi West 4.6 mph - N/A   Clear